Regional Weather Roundup
Issued by NWS

Home | Current Version | Previous Version | Graphics & Text | Print | Product List | Glossary On
Versions: 1 2 3 4 5 6 7 8 9 10 11 12 13 14 15 16 17 18 19 20 21 22 23 24 25 26 27 28 29 30 31 32 33 34 35 36 37 38 39 40 41 42 43 44 45 46 47 48 49 50
000
ASUS43 KLOT 221000
RWRIL

ILLINOIS REGIONAL WEATHER ROUNDUP
NATIONAL WEATHER SERVICE CHICAGO/ROMEOVILLE IL
400 AM CST SAT NOV 22 2014

NOTE: "FAIR" INDICATES FEW OR NO CLOUDS BELOW 12,000 FEET WITH NO
SIGNIFICANT WEATHER AND/OR OBSTRUCTIONS TO VISIBILITY.

* THESE STATIONS ARE NOT UNDER NWS QUALITY CONTROL. THEY ALSO MAY NOT
  REPORT WEATHER SUCH AS PRECIPITATION OR FOG.

ILZ001-002-007-009-015-016-024-221100-
NORTHWEST ILLINOIS

CITY           SKY/WX    TMP DP  RH WIND       PRES   REMARKS
MOLINE         CLOUDY    37  34  89 S5        30.03F WCI  33
STERLING*      CLOUDY    34  32  93 S3        30.05F
$$

ILZ003-004-008-010-011-017-018-221100-
NORTH CENTRAL ILLINOIS

CITY           SKY/WX    TMP DP  RH WIND       PRES   REMARKS
ROCKFORD       CLOUDY    33  31  92 S10       30.06F FOG     WCI  25
DE KALB*       MIX PCPN  31  31  97 S13       30.06F WCI  22
$$

ILZ005-006-012>014-019>023-221100-
NORTHEAST ILLINOIS

CITY           SKY/WX    TMP DP  RH WIND       PRES   REMARKS
CHICAGO-OHARE  RAIN      33  31  92 SW13      30.07F FOG     WCI  24
CHICAGO-MIDWAY LGT RAIN  35  32  88 S13       30.09F FOG     WCI  26
AURORA         LGT RAIN  34  31  88 S9        30.08F FOG     WCI  27
WAUKEGAN       LGT RAIN  33  29  85 SW17      30.04F WCI  22
DUPAGE AIRPORT MIX PCPN  32  31  96 S13       30.07F FOG     WCI  22
WHEELING       LGT RAIN  33  31  92 SW10      30.08F FOG     WCI  25
NORTHERLY ISL    N/A     34  32  92 S9          N/A  WCI  27
$$

LMZ740>746-221100-
SOUTHERN LAKE MICHIGAN

STATION/POSITION SKY/WX   TEMP    WIND        PRES    VSBY  WAVE
                          AIR SEA DIR/SP/G                  HT/PER
                          (F)     (DEG/KT/KT) (MB)    (MI)  (FT/S)
SOUTHERN BUOY              40 43  200/ 23/ 29 1019.2F         7/ 7
WAUKEGAN HARBOR            34     230/ 16/ 20   N/A
HARRISON CRIB              34     200/ 24/ 29   N/A
BURNHAM HARBOR             34     200/ 10/ 16   N/A
CALUMET HARBOR             34     180/ 10/ 17 1018.1F
MICHIGAN CITY              33     170/ 15/ 21   N/A
$$

ILZ025>027-034>036-040-047-049-050-058-095>099-221100-
WEST-CENTRAL ILLINOIS

CITY           SKY/WX    TMP DP  RH WIND       PRES   REMARKS
QUINCY         CLOUDY    44  40  85 S12       30.06F
$$

ILZ028>032-037-038-041>044-048-051>054-059>061-221100-
CENTRAL ILLINOIS

CITY           SKY/WX    TMP DP  RH WIND       PRES   REMARKS
DECATUR        CLOUDY    39  31  72 S13       30.14F WCI  31
PEORIA         CLOUDY    40  35  83 S12       30.09F HAZE
LINCOLN*       CLOUDY    40  34  81 S8        30.13F
SPRINGFIELD    CLOUDY    39  34  82 S10       30.12F WCI  32
TAYLORVILLE    NOT AVBL
$$

ILZ033-039-045-046-055>057-062-063-221100-
EAST-CENTRAL ILLINOIS

CITY           SKY/WX    TMP DP  RH WIND       PRES   REMARKS
CHAMPAIGN      CLOUDY    37  31  78 S13       30.15F WCI  29
MATTOON        CLOUDY    39  28  64 S10       30.16F WCI  32
$$

ILZ079-100>102-221100-
SOUTHWEST ILLINOIS

CITY           SKY/WX    TMP DP  RH WIND       PRES   REMARKS
CAHOKIA*       CLOUDY    45  36  70 SE8       30.15F
$$

ILZ064>066-069>071-074>076-080>082-084>086-088>090-092>094-221100-
SOUTH-CENTRAL ILLINOIS

CITY           SKY/WX    TMP DP  RH WIND       PRES   REMARKS
CARBONDALE     PTCLDY    44  36  73 S3        30.22S
MT. VERNON     CLOUDY    46  36  66 S10       30.20F
$$

ILZ067-068-072-073-078-083-087-091-221100-
SOUTHEAST ILLINOIS

CITY           SKY/WX    TMP DP  RH WIND       PRES   REMARKS
LAWRENCEVILLE  CLOUDY    39  32  76 S10       30.23F WCI  32
$$

ABBREVIATIONS USED IN REMARKS
   TC - TEMPERATURE IN CELSIUS
  WCI - WIND CHILL INDEX
   HX - HEAT INDEX
  VSB - VISIBILITY
$$



USA.gov is the U.S. government's official web portal to all federal, state and local government web resources and services.